Regional Weather Roundup
Issued by NWS

Home | Current Version | Previous Version | Text Only | Print | Product List | Glossary On
Versions: 1 2 3 4 5 6 7 8 9 10 11 12 13 14 15 16 17 18 19 20 21 22 23 24 25 26 27 28 29 30 31 32 33 34 35 36 37 38 39 40 41 42 43 44 45 46 47 48 49 50
000
ASUS43 KMPX 291010
RWRMN
WEATHER ROUNDUP FOR MINNESOTA
NATIONAL WEATHER SERVICE TWIN CITIES/CHANHASSEN MN
500 AM CDT SUN MAR 29 2015


NOTE: "FAIR" INDICATES FEW OR NO CLOUDS BELOW 12,000 FEET WITH NO
SIGNIFICANT WEATHER AND/OR OBSTRUCTIONS TO VISIBILITY. N/A MEANS
CURRENT SKY AND/OR WEATHER CONDITIONS ARE NOT AVAILABLE.

MNZ060>063-068>070-291100-
   Twin Cities Metro

CITY           SKY/WX    TMP DP  RH WIND       PRES   REMARKS
TWIN CITIES    MIX PCPN  35  29  78 S21G33    29.74F WCI  24
ST PAUL        LGT RAIN  34  29  82 S21       29.76F WCI  22
CRYSTAL        LGT RAIN  36  31  82 S16G22    29.70F
BLAINE         MIX PCPN  36  34  93 S18G24    29.70F
LAKEVILLE      MIX PCPN  34  28  80 S10       29.76F WCI  26
EDEN PRAIRIE   CLOUDY    36  30  79 S16       29.72F
SOUTH ST PAUL  LGT RAIN  34  31  88 S14       29.76F WCI  24
LAKE ELMO      LGT SNOW  34  30  86 S15       29.75F WCI  24
$$
MNZ001>005-007-008-013>017-022>024-027-028-291100-
   Northwest Minnesota

CITY           SKY/WX    TMP DP  RH WIND       PRES   REMARKS
BEMIDJI        RAIN      35  33  92 S12G23    29.44F WCI  27
HALLOCK        CLOUDY    39  37  93 N25G35    29.45R
ROSEAU         RAIN      39  36  87 SW7       29.41R
WARROAD        RAIN      37  36  93 SW7       29.41R
THIEF RVR FALL CLOUDY    39  36  87 SW21G26   29.42S
CROOKSTON      MIX PCPN  39  37  93 SW16      29.45R
FOSSTON        CLOUDY    37  34  87 S22G29    29.44S
DETROIT LAKES  CLOUDY    36  36 100 S13       29.49F
MOORHEAD       CLOUDY    39  39 100 S17       29.48F
PARK RAPIDS    LGT RAIN  37  33  85 S14       29.48F FOG
MAHNOMEN       CLOUDY    37  35  92 S22       29.45F
$$
MNZ006-009>011-018-025>026-291100-
   North Central Minnesota

CITY           SKY/WX    TMP DP  RH WIND       PRES   REMARKS
BAUDETTE       LGT RAIN  37  34  89 S12       29.40F
FLAG ISLAND    RAIN      34  32  93 CALM      29.40S
INTL FALLS     RAIN      35  31  85 S7        29.43F FOG     WCI  29
WASKISH        LGT RAIN  37  34  87 S6        29.42F
BIG FORK       MOCLDY    37  27  65 S21G31    29.46F
LONGVILLE      DRIZZLE   36  30  80 S10G18    29.52F
GRAND RAPIDS   CLOUDY    36  21  55 S20G26    29.52F
ORR            CLOUDY    36  21  55 S21G29    29.45F
COOK           CLOUDY    34  21  60 S13G26    29.50F WCI  25
WALKER         LGT RAIN  35  32  90 S12G29    29.46F WCI  26
$$
MNZ012-019>021-037-291100-
   Northeast Minnesota

CITY           SKY/WX    TMP DP  RH WIND       PRES   REMARKS
DULUTH         CLOUDY    35  19  52 S20G32    29.61F WCI  24
ELY            CLOUDY    36  19  51 S14G24    29.54F
HIBBING        MOCLDY    34  19  54 S12G20    29.55F WCI  25
EVELETH        CLOUDY    34  21  60 S17G24    29.57F WCI  23
DULUTH HARBOR  CLOUDY    37  21  52 S17G24    29.65F
TWO HARBORS    MOCLDY    36  23  60 S10G18    29.63F
SILVER BAY     CLOUDY    36  19  51 S15G21    29.63F
GRAND MARAIS     N/A     34  28  79 S10       29.68F WCI  26
G MARAIS ARPRT CLOUDY    28  18  64 S14G23    29.61F WCI  17
$$
MNZ029>031-032-039>041-046>048-054>057-064-291100-
   West Central Minnesota

CITY           SKY/WX    TMP DP  RH WIND       PRES   REMARKS
FERGUS FALLS   CLOUDY    37  32  81 S14       29.55F
WHEATON        CLOUDY    41  36  81 S9        29.55F
MORRIS         CLOUDY    39  34  81 S13       29.55F
ALEXANDRIA     CLOUDY    37  31  78 S20G26    29.56F
ELBOW LAKE     CLOUDY    37  33  88 S20       29.53F
WADENA         CLOUDY    36  32  87 S14       29.53F
GLENWOOD       CLOUDY    37  34  87 S20G26    29.58F
APPLETON       CLOUDY    45  34  65 S9G16     29.57F
BENSON         CLOUDY    39  34  81 SW10      29.59F
ORTONVILLE     CLOUDY    46  34  61 SW9G16    29.56F
MADISON        CLOUDY    46  34  61 SW16      29.58F
WILLMAR        FAIR      37  32  81 S7        29.64F
$$
MNZ033>034-036-042>043-049>051-058-059-291100-
   Central Minnesota

CITY           SKY/WX    TMP DP  RH WIND       PRES   REMARKS
ST CLOUD       CLOUDY    35  30  82 S20G26    29.64F WCI  24
SAUK CENTRE    CLOUDY    35  32  88 S16G22    29.59F WCI  25
PAYNESVILLE    LGT RAIN  34  30  86 SE17G23   29.62F WCI  23
AITKIN         CLOUDY    39  28  65 S15G25    29.56F
PINE RIVER     LGT RAIN  36  30  80 S14G24    29.58F
BRAINERD       CLOUDY    35  30  82 S17G28    29.57F WCI  25
STAPLES        CLOUDY    36  30  80 S18       29.55F
LONG PRAIRIE   CLOUDY    34  32  93 S17G23    29.58F WCI  23
LITTLE FALLS   CLOUDY    34  32  93 S12G17    29.60F WCI  25
LITCHFIELD     CLOUDY    36  34  93 S3        29.65F
BUFFALO        CLOUDY    36  30  80 S12G18    29.70F
MAPLE LAKE     RAIN      36  33  88 S9G17     29.68F
$$
MNZ037-044-045-052-053-291100-
   East Central Minnesota

CITY           SKY/WX    TMP DP  RH WIND       PRES   REMARKS
PRINCETON      DRIZZLE   36  32  87 S15G21    29.68F
MORA           CLOUDY    34  27  75 S10       29.68F WCI  26
CAMBRIDGE      MIX PCPN  36  27  69 S12       29.67F
RUSH CITY      CLOUDY    33  27  78 S10G23    29.69F WCI  25
MOOSE LAKE     CLOUDY    34  21  60 S14G24    29.62F WCI  24
HINCKLEY       DRIZZLE   36  27  69 S21G29    29.67F
CLOQUET        CLOUDY    36  19  51 S17G26    29.61F
MCGREGOR       CLOUDY    36  27  69 S12G18    29.60F
$$
MNZ071>073-080-081-089-090-097-098-291100-
   Southwest Minnesota

CITY           SKY/WX    TMP DP  RH WIND       PRES   REMARKS
MONTEVIDEO     MOCLDY    41  36  81 SW13      29.61F
GRANITE FALLS  MOCLDY    40  33  75 S16       29.65F
CANBY          PTCLDY    44  33  65 SW20G29   29.60F
MARSHALL       MOCLDY    39  30  70 SW16      29.64R
REDWOOD FALLS  CLOUDY    40  33  76 S17       29.65F
OLIVIA         CLOUDY    37  34  87 S16       29.64F
PIPESTONE      PTCLDY    39  34  81 SW12      29.65R
WINDOM         CLOUDY    37  32  81 S18G28    29.66F
WORTHINGTON    MOCLDY    39  30  70 S22G33    29.68F
JACKSON        CLOUDY    37  32  81 S16G22    29.71F
TRACY          MOCLDY    41  33  74 S23G31    29.64S
SLAYTON        PTCLDY    38  32  79 S18G29    29.67R
$$
MNZ065>067-074>077-082>085-091>093-291100-
   South Central Minnesota

CITY           SKY/WX    TMP DP  RH WIND       PRES   REMARKS
MANKATO        CLOUDY    36  27  69 S26G33    29.72F
NEW ULM        DRIZZLE   36  30  80 S20G28    29.68F
ST JAMES       CLOUDY    37  32  81 S25G32    29.68F
FAIRMONT       CLOUDY    36  28  75 S17G28    29.74S
GLENCOE        CLOUDY    37  32  84 S12G20    29.69F
FARIBAULT      LGT RAIN  34  28  80 S12G18    29.77F WCI  25
OWATONNA       RAIN      34  28  80 S22G32    29.73F WCI  22
WASECA         LGT RAIN  34  28  80 S29G38    29.74F WCI  20
ALBERT LEA     MIX PCPN  34  30  86 S21G28    29.77F WCI  22
$$
MNZ078>079-086>088-094>096-291100-
   Southeast Minnesota

CITY           SKY/WX    TMP DP  RH WIND       PRES   REMARKS
ROCHESTER      CLOUDY    31  22  69 S23G37    29.83F WCI  18
RED WING       RAIN      36  23  60 S7        29.83S
STANTON        LGT RAIN  36  28  73 S15G21    29.76F
DODGE CENTER   CLOUDY    34  27  75 S29G35    29.77F WCI  20
WINONA         PTCLDY    36  21  55 S10G17    29.90F
AUSTIN         MIX PCPN  34  27  75 S21G30    29.82F WCI  22
PRESTON        MOCLDY    30  21  68 S22G31    29.84F WCI  17
$$
ABBREVIATIONS USED IN REMARKS
   TC - TEMPERATURES IN CELSIUS
  WCI - WIND CHILL INDEX
   HX - HEAT INDEX
  VSB - VISIBILITY
$$


USA.gov is the U.S. government's official web portal to all federal, state and local government web resources and services.